SCP
0 0 0 0 0 0 0 0 0 0 0 0 0 0 0 0 0 0 0 0 0 0 0 0 0 0 0 0 0 0 0 0 0 0 0 0 0 0
0 0 0 0 0 0 0 0 0 0 0 0 0 0 0 0 0 0 0 0 0 0 0 0 0 0 0 0 0 0 0 0 0 0 0 0 0 0
0 0 0 0 0 0 0 0 0 0 0 0 0 0 0 0 0 0 0 0 0 0 0 0 0 0 0 0 0 0 0 0 0 0 0 0 0 0
0 0 0 0 0 0 0 0 0 0 0 0 0 0 0 0 0 0 0 0 0 0 0 0 0 0 0 0 0 0 0 0 0 0 0 0 0 0
0 0 0 0 0 0 0 0 0 0 0 0 0 0 0 0 0 0 0 0 0 0 0 0 0 0 0 0 0 0 0 0 0 0 0 0 0 0
0 0 0 0 0 0 0 0 0 0 0 0 0 0 0 0 0 0 0 0 0 0 0 0 0 0 0 0 0 0 0 0 0 0 0 0 0 0
0 0 0 0 0 0 0 0 0 0 0 0 0 0 0 0 0 0 0 0 0 0 0 0 0 0 0 0 0 0 0 0 0 0 0 0 0 0
0 0 0 0 0 0 0 0 0 0 0 0 0 0 0 0 0 0 0 0 0 0 0 0 0 0 0 0 0 0 0 0 0 0 0 0 0 0
0 0 0 0 0 0 0 0 0 0 0 0 0 0 0 0 0 0 0 0 0 0 0 0 0 0 0 0 0 0 0 0 0 0 0 0 0 0
0 0 0 0 0 0 0 0 0 0 0 0 0 0 0 0 0 0 0 0 0 0 0 0 0 0 0 0 0 0 0 0 0 0 0 0 0 0
0 0 0 0 0 0 0 0 0 0 0 0 0 0 0 0 0 0 0 0 0 0 0 0 0 0 0 0 0 0 0 0 0 0 0 0 0 0
0 0 0 0 0 0 0 0 0 0 0 0 0 0 0 0 0 0 0 0 0 0 0 0 0 0 0 0 0 0 0 0 0 0 0 0 0 0
0 0 0 0 0 0 0 0 0 0 0 0 0 0 0 0 0 0 0 0 0 0 0 0 0 0 0 0 0 0 0 0 0 0 0 0 0 0
-0 0 0 0 0 0 0 0 0 0 0 0 0 0 0 0 0 0 0 0 0 0 0 0 0 0 0 0 0 0 0 0 0 0 0 0 0 0
0 0 0 0 0 0 0 0 0 0 0 0 0 0 0 0 0 0 0 0 0 0 0 0 0 0 0 0 0 0 0 0 0 0 0 0 0 0
0 0 0 0 0 0 0 0 0 0 0 0 0 0 0 0 0 0 0 0 0 0 0 0 0 0 0 0 0 0 0 0 0 0 0 0 0 0
0 0 0 0 0 0 0 0 0 0 0 0 0 0 0 0 0 0 0 0 0 0 0 0 0 0 0 0 0 0 0 0 0 0 0 0 0 0
0 0 0 0 0 0 0 0 0 0 0 0 0 0 0 0 0 0 0 0 0 0 0 0 0 0 0 0 0 0 0 0 0 0 0 0 0 0
0 0 0 0 0 0 0 0 0 0 0 0 0 0 0 0 0 0 0 0 0 0 0 0 0 0 0 0 0 0 0 0 0 0 0 0 0 0
0 0 0 0 0 0 0 0 0 0 0 0 0 0 0 0 0 0 0 0 0 0 0 0 0 0 0 0 0 0 0 0 0 0 0 0 0 0
0 0 0 0 0 0 0 0 0 0 0 0 0 0 0 0 0 0 0 0 0 0 0 0 0 0 0 0 0 0 0 0 0 0 0 0 0 0
0 0 0 0 0 0 0 0 0 0 0 0 0 0 0 0 0 0 0 0 0 0 0 0 0 0 0 0 0 0 0 0 0 0 0 0 0 0
0 0 0 0 0 0 0 0 0 0 0 0 0 0 0 0 0 0 0 0 0 0 0 0 0 0 0 0 0 0 0 0 0 0 -0 -0 0 0
Wind_Speed
9 8 7 5 4 3 4 5 7 5 4 3 2 1 2 3 8 5 7 13 15 16 17 16 15 14 15 15 15 14 14 13 11 11 11 10 10 10
5 5 4 3 3 3 4 3 4 5 4 4 3 1 2 3 8 6 6 15 16 17 17 17 16 15 15 14 14 14 13 13 11 11 10 10 10 10
2 2 3 2 3 3 4 4 4 4 4 1 1 1 2 4 5 4 5 6 8 16 18 17 16 14 13 13 13 13 13 12 11 10 10 9 9 8
3 2 3 2 2 3 3 5 4 4 4 3 1 1 2 2 4 5 4 5 6 14 17 17 15 14 13 12 12 12 11 11 10 10 9 7 7 6
8 6 5 4 4 3 4 4 3 3 3 3 2 2 2 2 3 3 3 2 3 8 15 16 16 15 13 13 12 11 11 10 10 8 7 6 5 4
12 11 10 8 5 5 4 4 3 3 3 4 3 2 2 2 3 3 3 3 2 1 7 8 11 12 11 11 11 11 10 9 9 8 8 7 6 5
13 13 14 16 16 8 5 4 3 3 3 3 3 3 2 2 2 2 3 3 3 2 3 2 3 4 4 7 10 11 11 11 11 10 10 9 8 7
12 11 12 15 18 19 19 17 12 6 2 2 2 3 3 2 2 1 3 4 3 2 3 3 3 4 3 3 11 14 14 14 12 11 10 9 8 7
10 10 10 12 15 12 17 20 19 21 17 5 4 4 3 2 2 3 2 3 4 3 2 3 3 4 4 8 16 15 15 14 12 11 9 8 7 7
10 9 10 10 11 12 11 12 12 13 13 11 9 8 7 6 5 3 4 7 6 5 4 3 3 4 6 6 13 15 14 13 11 10 8 7 6 7
9 9 8 8 16 16 11 10 11 11 18 23 23 21 23 19 11 5 4 4 4 4 5 3 3 3 4 5 8 13 13 11 10 9 8 7 7 7
7 8 13 14 19 17 10 8 9 8 9 11 14 17 15 17 19 11 6 4 4 4 5 3 3 3 4 3 3 5 6 8 9 9 8 7 8 4
5 6 7 18 20 19 14 9 11 9 8 9 9 10 10 10 10 10 9 7 6 5 4 3 3 3 3 3 2 2 3 2 2 4 7 9 9 6
3 3 7 18 19 19 14 15 16 12 7 8 8 9 8 8 7 8 9 10 9 8 6 5 3 2 2 2 2 2 2 2 2 2 3 7 7 9
1 6 13 17 16 13 17 18 13 8 7 8 8 7 7 6 6 6 7 7 9 9 9 9 5 3 2 2 2 1 1 1 2 2 3 3 3 3
5 10 15 16 13 13 12 10 8 7 7 7 6 6 5 6 7 6 6 4 4 6 8 8 7 4 2 1 1 0 0 1 2 2 3 2 3 3
7 6 6 6 6 6 6 7 6 7 7 6 6 6 6 6 6 6 6 5 4 4 5 5 5 4 2 1 0 0 0 1 2 3 4 4 3 3
10 7 7 6 6 5 5 5 5 5 5 5 5 5 4 4 4 4 4 4 4 4 4 4 5 4 2 2 1 1 1 1 1 2 3 4 5 3
8 6 5 5 4 4 3 3 2 3 3 3 3 2 3 3 3 3 3 3 3 3 3 4 4 3 3 2 4 4 3 3 4 4 3 3 6 7
4 4 4 4 3 3 3 2 2 2 2 2 1 1 2 2 2 2 2 2 2 2 2 2 2 3 2 2 3 3 5 4 3 5 5 5 6 9
3 3 2 2 2 2 2 2 2 2 1 1 1 1 1 0 1 1 1 3 2 1 1 1 2 5 3 2 3 4 3 5 7 6 6 7 6 4
2 2 3 3 2 1 1 1 2 2 2 1 2 2 2 2 2 3 2 2 2 2 2 3 3 2 1 2 4 5 5 5 6 11 11 10 6 6
3 3 3 3 3 2 2 2 3 3 3 3 3 3 3 3 3 3 3 3 3 3 3 2 2 2 3 4 5 5 7 8 7 6 6 10 14 18
Wind_Direction
251 240 231 218 202 191 161 152 149 162 211 228 228 204 153 149 159 147 143 146 142 138 136 133 132 136 134 130 128 125 121 115 108 101 93 85 75 62
243 215 203 197 185 171 146 128 130 141 178 212 202 169 149 145 162 148 150 149 147 145 143 140 141 142 136 133 130 127 124 119 113 107 100 93 83 69
273 199 159 157 153 132 127 121 117 124 141 175 120 114 127 145 146 140 144 144 152 151 150 148 146 145 142 138 136 136 133 127 119 112 105 98 87 72
14 43 63 66 78 103 116 122 126 124 130 149 135 96 95 149 144 146 149 154 153 162 158 156 154 154 152 148 146 144 139 132 126 120 116 108 92 73
24 31 46 69 64 59 71 90 104 115 120 132 129 87 77 85 120 118 126 125 156 170 166 164 163 162 162 159 156 151 147 144 142 138 133 125 109 85
20 25 31 40 56 63 64 67 84 103 121 126 125 109 91 60 114 130 121 101 92 119 165 167 169 165 164 163 158 151 148 144 138 129 120 114 108 94
18 21 28 30 34 52 74 66 75 91 120 136 135 129 111 88 105 121 128 111 64 42 106 97 118 104 112 132 131 133 128 120 113 109 105 97 86 73
17 17 24 29 26 35 53 57 58 60 72 103 119 122 98 77 57 83 126 134 129 16 92 61 65 87 91 98 120 118 113 108 102 96 90 81 69 52
24 21 25 30 36 34 40 41 41 44 46 52 69 84 96 72 75 73 69 87 96 11 50 87 62 71 69 99 107 106 102 96 89 82 73 62 46 22
21 24 30 34 49 53 49 46 41 43 52 51 54 54 66 66 59 69 94 100 86 38 5 105 91 77 64 64 92 95 90 85 80 74 62 46 28 14
15 18 35 43 59 62 56 52 45 39 51 61 61 56 53 54 52 53 58 101 99 51 14 65 86 85 72 51 60 76 77 76 77 71 57 39 32 30
15 10 37 64 68 66 58 58 58 52 56 58 57 53 50 47 50 45 39 55 82 76 15 42 68 86 92 65 45 41 48 58 65 60 49 33 19 27
30 19 37 66 64 60 57 58 76 75 63 62 59 54 48 43 41 43 43 48 69 72 21 27 64 66 92 112 97 53 41 36 41 46 36 23 15 12
46 31 60 67 63 61 58 57 64 64 59 60 57 51 46 40 36 41 53 63 69 73 47 43 68 67 100 109 111 59 25 43 53 49 21 10 10 357
41 105 90 75 64 53 57 60 57 53 57 60 59 52 45 39 34 40 47 68 71 64 55 51 58 71 78 105 112 93 354 4 35 35 10 356 333 329
54 82 81 77 72 65 59 53 52 62 63 59 59 53 46 45 41 34 36 37 67 62 50 47 43 43 65 98 136 178 256 312 6 9 342 312 300 299
81 70 65 63 62 62 62 59 56 53 56 52 50 49 45 44 41 34 35 38 51 40 29 23 18 11 339 248 311 322 9 3 13 4 338 315 288 280
60 52 53 52 51 50 52 53 52 53 51 55 55 51 46 41 43 37 44 44 50 40 29 17 11 7 17 66 87 19 48 2 323 323 326 313 303 293
53 47 40 33 29 28 31 37 42 48 48 48 50 36 32 35 41 44 41 38 38 38 30 18 15 19 30 9 351 36 31 336 316 312 313 306 299 304
36 38 31 22 17 11 7 7 12 20 36 40 35 21 12 7 15 29 33 28 16 17 24 19 13 10 4 339 315 299 315 304 314 318 316 311 290 288
1 360 356 353 353 357 355 355 351 340 344 340 317 305 296 280 300 320 320 325 352 10 322 310 299 331 329 288 269 268 267 295 313 306 310 312 307 290
322 316 312 311 310 306 304 310 313 303 302 284 276 278 271 252 253 262 262 260 255 252 260 272 288 303 257 253 272 286 294 302 309 305 290 276 283 293
298 293 288 290 291 284 271 264 263 266 262 253 252 254 249 244 245 247 252 252 254 257 260 270 262 230 243 253 269 279 284 296 308 308 294 289 286 282